SCP
0 0 0 0 0 0 0 0 0 0 0 0 0 0 0 0 0 0 0 0 0 0 0 0 0 0 0 0 -0 -0 -0 0 -0 -0 -0 0 0 0 0 -0 -0 -0 -0
0 0 0 0 0 0 0 0 0 0 0 0 0 -0 -0 -0 0 0 -0 0 0 0 0 0 0 0 0 -0 -0 -0 -0 0 0 -0 -0 0 0 0 0 -0 -0 -0 -0
0 0 0 0 0 0 0 0 0 0 0 -0 -0 0 -0 -0 -0 -0 -0 -0 0 0 0 0 0 0 -0 -0 -0 0 0 0 0 0 0 0 0 0 0 0 0 -0 -0
0 0 0 0 0 0 0 0 -0 -0 -0 -0 -0 -0 0 0 0 0 0 0 0 0 -0 -0 -0 -0 -0 -0 0 0 0 0 0 0 0 0 0 0 0 0 0 0 0
0 0 0 0 0 0 0 0 0 -0 -0 -0 -0 -0 -0 -0 -0 -0 -0 -0 -0 -0 -0 -0 -0 -0 0 0 0 0 0 0 0 0 0 0 0 0 0 -0 0 0 0
0 0 0 0 0 0 0 0 0 0 0 0 0 0 0 0 0 0 0 0 0 0 0 0 0 0 0 0 0 0 -0 0 0 0 0 0 0 0 0 0 0 0 -0
0 0 0 0 0 0 0 0 0 0 0 0 0 0 0 0 0 0 0 0 0 0 0 0 0 0 0 0 -0 -0 0 0 0 0 0 0 0 0 0 0 0 0 0
0 0 0 0 0 0 0 0 0 0 0 0 0 0 0 0 0 0 0 0 0 0 0 0 0 0 0 0 0 0 0 0 0 0 0 0 0 0 0 0 0 0 0
0 0 0 0 0 0 0 0 0 0 0 0 0 0 0 0 0 0 0 0 0 0 0 0 0 0 0 0 0 0 0 0 0 0 0 0 0 0 0 0 0 0 0
0 0 0 0 0 0 0 0 0 0 0 0 0 0 0 0 0 0 0 0 0 0 0 0 0 0 0 0 0 0 0 0 0 0 0 0 0 0 0 0 0 0 0
0 0 0 0 0 0 0 0 0 0 0 0 0 0 0 0 0 0 0 0 0 0 0 0 0 0 0 0 0 0 0 0 0 0 0 0 0 0 0 0 0 0 0
0 0 0 0 0 0 0 0 0 0 0 0 0 0 0 0 0 0 0 0 0 0 0 0 0 0 0 0 0 0 0 0 0 0 0 0 0 0 0 0 0 0 0
0 0 0 0 0 0 0 0 0 0 0 0 0 0 0 0 0 0 0 0 0 0 0 0 0 0 0 0 0 0 0 0 0 0 0 0 0 0 0 0 0 0 0
0 0 0 0 0 0 0 0 0 0 0 0 0 0 0 0 0 0 0 0 0 0 0 0 0 0 0 0 0 0 0 0 0 0 0 0 0 0 0 0 0 0 0
0 0 0 0 0 0 0 0 0 0 0 0 0 0 0 0 0 0 0 0 0 0 0 0 0 0 0 0 0 0 0 0 0 0 0 0 0 0 0 0 0 0 0
0 0 0 0 0 0 0 0 0 0 0 -0 0 0 0 0 0 0 0 0 0 0 0 0 0 0 0 0 0 0 0 0 0 0 0 0 0 0 0 0 0 0 0
0 0 0 0 0 0 0 0 0 0 -0 -0 -0 -0 0 0 0 0 0 0 0 0 0 0 0 0 0 0 0 0 0 0 0 0 0 0 0 0 0 0 0 0 0
0 0 0 0 0 0 0 0 0 0 0 0 0 0 0 0 0 0 0 0 0 0 0 0 0 0 0 0 0 0 0 0 0 0 0 0 0 0 0 0 0 0 0
0 0 0 0 0 0 0 0 0 0 0 0 0 0 0 0 0 0 0 0 0 0 0 0 0 0 0 0 0 0 0 0 0 0 0 0 0 0 0 0 0 0 0
0 0 0 0 0 0 0 0 0 0 0 0 0 0 0 0 0 0 0 0 0 0 0 0 0 0 0 0 0 0 0 0 0 0 0 0 0 0 0 0 0 0 0
0 0 0 0 0 0 0 0 0 0 0 0 0 0 0 0 0 0 0 0 0 0 0 0 0 0 0 0 0 0 0 0 0 0 0 0 0 0 0 0 0 0 0
0 0 0 0 0 0 0 0 0 0 0 0 0 0 0 0 0 0 0 0 0 0 0 0 0 0 0 0 0 0 0 0 0 0 0 0 0 0 0 0 0 0 0
0 0 0 0 0 0 0 0 0 0 0 0 0 0 0 0 0 0 0 0 0 0 0 0 0 0 0 0 0 0 0 0 0 0 0 0 0 0 0 0 0 0 0
0 0 0 0 0 0 0 0 0 0 0 0 0 0 0 0 0 0 0 0 0 0 0 0 0 0 0 0 0 0 0 0 0 0 0 0 0 0 0 0 0 0 0
0 0 0 0 0 0 0 0 0 0 0 0 0 0 0 0 0 0 0 0 0 0 0 0 0 0 0 0 0 0 0 0 0 0 0 0 0 0 0 0 0 0 0
-0 0 0 0 -0 -0 0 0 0 0 0 0 -0 0 0 0 0 0 0 0 0 0 0 0 0 0 0 0 0 0 0 0 0 0 0 0 0 0 0 0 0 0 0
Wind_Speed_500mb
37 34 34 32 30 31 33 31 28 25 24 22 21 22 20 16 18 18 16 17 12 3 8 4 11 15 17 15 18 19 22 26 30 25 25 17 20 22 20 22 5 8 8
34 32 37 39 46 40 32 30 27 20 16 16 17 23 14 9 10 13 14 12 9 10 10 12 10 10 10 13 18 22 21 18 20 21 18 19 22 20 21 8 14 10 10
32 35 38 40 41 33 28 25 22 6 9 8 15 20 20 22 17 13 13 13 11 10 12 12 11 11 14 15 20 19 20 21 21 18 16 20 22 21 11 14 13 11 14
33 36 31 37 41 36 30 26 22 20 9 7 12 19 25 23 18 16 16 20 20 17 16 17 15 14 16 19 19 17 20 18 9 9 17 17 18 19 6 10 7 8 12
36 28 26 36 44 33 28 32 30 16 8 13 16 17 19 19 18 14 9 7 7 9 10 9 9 14 20 12 8 12 13 5 7 13 15 22 20 12 11 10 4 15 18
26 23 32 40 38 36 28 25 27 28 18 15 16 14 15 20 18 20 20 15 10 4 1 4 10 9 8 2 6 9 6 5 10 15 16 17 19 18 15 10 12 19 21
22 28 35 41 37 39 38 33 32 30 27 20 19 20 18 16 15 14 12 10 10 5 1 3 4 5 9 13 13 12 11 10 11 13 14 16 21 19 16 15 17 18 19
22 31 37 41 44 37 34 32 30 30 32 31 22 16 13 11 12 15 19 17 18 18 15 12 17 22 18 19 16 15 16 15 15 16 16 14 16 18 18 19 23 24 21
29 34 38 41 41 36 40 38 35 34 36 36 37 35 33 32 29 25 24 25 26 26 28 29 21 21 22 25 26 28 28 28 28 23 19 18 19 19 19 21 16 24 22
34 33 33 36 38 31 31 37 38 37 35 32 30 30 30 33 39 45 36 28 26 28 29 29 25 24 27 30 35 37 36 37 37 35 32 30 26 23 20 21 22 21 21
27 29 29 31 31 35 32 41 53 53 53 50 45 45 47 51 45 45 49 45 28 27 31 31 33 36 35 34 34 32 30 28 26 23 21 22 20 18 17 21 24 28 21
27 22 26 31 33 32 35 46 43 43 47 52 57 57 52 48 47 45 48 52 51 43 41 39 34 32 30 26 25 21 21 23 21 19 20 25 24 21 22 23 23 21 20
24 28 35 40 43 45 46 40 40 44 42 38 40 40 39 38 38 38 37 40 43 41 39 36 32 29 25 23 22 20 20 22 20 17 19 24 25 22 24 29 24 21 18
35 44 52 50 46 46 42 37 41 50 44 42 38 36 35 37 33 33 34 31 27 25 27 23 19 22 18 18 20 21 22 24 22 17 16 14 21 29 24 36 28 25 25
49 47 44 46 42 35 35 35 39 42 46 39 41 33 33 36 39 29 29 26 24 23 25 25 27 26 25 23 26 28 30 28 33 27 20 17 20 27 32 36 33 27 24
41 40 39 38 41 35 33 32 38 34 38 42 39 31 25 24 27 29 26 24 19 13 17 19 25 27 31 25 27 32 34 33 29 30 30 26 21 27 31 34 35 31 30
28 27 28 30 28 33 30 22 23 27 30 32 31 28 26 22 20 20 21 21 14 11 17 20 24 26 27 27 27 31 33 34 34 32 28 26 25 25 29 31 32 33 32
21 23 25 23 19 24 30 21 18 21 23 30 34 29 27 25 20 19 19 16 20 20 19 21 23 24 24 24 25 28 30 32 31 31 29 29 30 27 28 30 30 31 31
14 19 18 13 18 23 28 24 22 24 27 29 27 32 32 26 22 20 20 24 26 24 24 22 21 22 22 21 22 25 30 35 36 29 26 28 29 29 29 29 29 30 32
17 13 12 17 21 23 22 22 20 22 23 25 30 35 36 31 29 30 30 28 26 25 22 20 19 18 19 19 20 25 31 37 35 32 31 30 31 30 29 29 30 31 32
9 10 17 20 19 24 20 20 21 23 23 26 29 33 36 32 31 30 30 30 28 27 26 25 22 18 18 20 20 24 30 34 32 31 30 30 31 29 28 28 29 29 29
8 15 18 22 20 20 18 19 21 22 22 20 26 27 28 28 30 29 29 29 30 30 29 27 25 22 19 19 21 23 26 31 32 33 33 30 30 28 27 28 29 29 31
18 14 20 18 19 19 20 20 19 19 19 21 19 18 21 23 25 27 28 28 29 29 29 28 28 25 23 22 22 24 25 30 32 37 34 29 28 28 28 28 29 30 31
17 13 19 20 18 17 18 18 18 19 20 18 18 17 16 19 22 24 27 25 26 26 27 27 28 28 26 25 24 25 26 29 33 36 32 27 27 27 27 28 28 30 30
11 14 16 16 18 18 17 17 18 20 21 20 18 16 16 17 20 22 23 22 23 23 24 25 26 27 27 27 27 28 28 29 32 34 29 27 26 27 28 29 29 29 31
7 10 15 15 17 15 14 15 18 19 20 20 20 17 15 15 18 20 20 19 20 21 22 24 25 26 26 27 28 27 27 29 31 33 31 27 27 30 27 29 31 29 31
Wind_Direction_500mb
337 337 334 327 325 323 319 318 324 334 338 327 331 321 329 352 3 20 45 53 56 114 186 347 305 295 290 297 299 305 309 305 296 306 330 323 331 334 335 328 342 113 71
344 343 338 338 338 329 328 324 314 314 335 340 3 9 352 356 356 358 2 17 34 30 14 350 324 310 300 298 308 306 303 297 304 312 323 337 337 345 342 359 108 81 58
345 342 349 351 348 343 338 340 358 19 334 2 351 354 350 343 322 311 310 307 310 313 318 326 322 322 318 313 311 302 295 301 309 312 319 331 342 357 36 109 85 60 26
348 1 10 16 15 15 17 10 359 341 33 42 349 340 338 331 323 308 285 276 276 279 290 300 307 303 304 306 308 291 283 312 325 331 340 341 340 356 106 126 56 30 4
6 22 13 10 8 12 24 25 24 28 29 12 347 341 343 359 6 10 4 333 294 267 278 282 291 304 310 312 307 309 329 352 16 354 352 356 16 47 104 107 52 350 350
39 17 17 7 19 25 17 41 41 48 52 45 48 60 47 41 44 55 57 60 67 84 84 317 316 319 321 348 339 18 33 11 4 6 14 25 46 76 93 72 16 4 11
30 15 19 20 31 31 39 42 46 43 39 52 60 57 56 49 44 32 26 19 14 6 26 62 75 32 39 72 65 44 37 37 25 38 47 78 72 70 59 38 20 5 356
25 14 26 31 35 40 43 46 41 43 52 59 59 52 37 19 24 50 58 57 70 74 81 90 86 95 75 59 50 45 49 42 48 67 76 73 56 49 42 29 25 14 2
22 34 41 46 47 48 47 50 47 53 57 60 63 60 57 52 57 61 64 72 75 73 86 102 93 80 64 61 69 71 69 66 68 71 67 59 54 50 37 28 6 14 12
32 35 37 39 41 40 44 43 49 53 59 58 56 54 51 55 66 67 59 64 77 83 86 85 80 74 72 78 81 79 74 71 68 65 61 60 53 50 42 26 10 8 349
16 22 39 46 44 44 51 65 71 66 65 67 65 66 65 78 75 65 55 57 85 96 88 81 76 83 83 81 74 72 68 63 57 52 41 35 19 20 13 351 348 346 339
17 32 52 47 52 59 75 86 76 69 67 68 69 69 66 71 66 59 56 62 74 84 85 84 80 79 78 71 63 57 48 45 47 39 21 21 26 33 23 16 4 358 358
53 68 71 70 75 80 86 72 64 56 57 58 61 63 69 72 68 60 65 65 71 75 76 74 68 60 53 56 50 50 45 35 34 27 19 23 17 8 357 356 0 352 344
81 87 90 77 74 78 75 71 68 61 57 59 63 66 65 62 56 61 60 62 68 70 71 64 54 56 55 41 31 28 22 13 360 352 0 1 360 13 3 2 346 334 347
86 93 77 78 74 77 69 63 56 56 46 64 61 68 62 47 53 64 60 51 58 61 50 59 62 54 45 39 40 32 20 22 24 31 21 22 8 10 9 9 8 7 354
86 84 80 83 73 69 71 57 60 53 43 39 44 48 47 42 37 35 44 38 31 41 41 58 45 46 33 33 34 32 30 27 22 23 25 21 17 10 12 11 12 10 7
93 74 74 74 79 62 63 61 53 45 37 30 31 29 26 25 19 12 3 356 360 2 31 43 44 35 33 37 36 33 28 23 24 22 21 14 5 359 2 2 5 9 8
80 68 86 75 55 38 31 35 50 44 35 32 35 34 32 29 27 30 34 49 54 51 52 43 37 33 32 31 31 29 27 22 17 15 14 16 15 8 2 1 359 359 359
90 85 80 57 23 17 20 37 39 39 42 46 42 36 31 26 27 31 39 46 46 44 44 42 38 35 33 33 32 29 23 17 13 14 17 16 12 9 4 3 2 360 1
91 74 38 26 9 1 19 38 41 43 43 40 33 32 28 31 41 43 44 45 45 43 39 36 33 31 29 27 26 24 24 19 26 32 27 16 10 5 6 7 3 2 1
67 21 350 345 15 36 40 40 40 36 33 27 24 24 24 32 39 41 43 44 44 43 42 41 38 36 35 34 33 27 24 23 26 25 18 13 10 10 9 6 4 7 5
347 356 21 36 36 34 29 29 32 28 25 22 17 16 18 27 34 35 36 38 41 42 41 40 40 39 39 34 28 25 24 25 26 22 16 10 10 10 11 10 10 10 7
30 56 31 31 30 29 26 26 22 19 19 17 16 12 16 23 27 28 31 39 45 45 43 42 41 39 38 34 31 30 29 25 21 17 14 9 8 14 12 13 13 13 13
31 33 32 30 22 22 23 21 17 14 12 11 10 13 17 22 23 25 29 38 42 43 42 41 40 39 39 36 34 32 27 20 16 15 16 13 12 14 15 16 14 12 10
38 16 12 24 31 28 25 22 15 9 7 8 9 15 20 26 25 23 26 35 39 41 41 39 37 36 35 32 29 26 21 13 14 15 18 17 16 17 18 16 16 11 12
298 344 6 9 0 356 358 3 5 4 5 9 12 15 22 28 25 21 24 33 35 37 37 35 33 31 30 29 28 23 20 16 14 15 24 19 21 20 21 16 17 17 15
Wind_Speed_850mb
37 34 34 32 30 31 33 31 28 25 24 22 21 22 20 16 18 18 16 17 12 3 8 4 11 15 17 15 18 19 22 26 30 25 25 17 20 22 20 22 5 8 8
34 32 37 39 46 40 32 30 27 20 16 16 17 23 14 9 10 13 14 12 9 10 10 12 10 10 10 13 18 22 21 18 20 21 18 19 22 20 21 8 14 10 10
32 35 38 40 41 33 28 25 22 6 9 8 15 20 20 22 17 13 13 13 11 10 12 12 11 11 14 15 20 19 20 21 21 18 16 20 22 21 11 14 13 11 14
33 36 31 37 41 36 30 26 22 20 9 7 12 19 25 23 18 16 16 20 20 17 16 17 15 14 16 19 19 17 20 18 9 9 17 17 18 19 6 10 7 8 12
36 28 26 36 44 33 28 32 30 16 8 13 16 17 19 19 18 14 9 7 7 9 10 9 9 14 20 12 8 12 13 5 7 13 15 22 20 12 11 10 4 15 18
26 23 32 40 38 36 28 25 27 28 18 15 16 14 15 20 18 20 20 15 10 4 1 4 10 9 8 2 6 9 6 5 10 15 16 17 19 18 15 10 12 19 21
22 28 35 41 37 39 38 33 32 30 27 20 19 20 18 16 15 14 12 10 10 5 1 3 4 5 9 13 13 12 11 10 11 13 14 16 21 19 16 15 17 18 19
22 31 37 41 44 37 34 32 30 30 32 31 22 16 13 11 12 15 19 17 18 18 15 12 17 22 18 19 16 15 16 15 15 16 16 14 16 18 18 19 23 24 21
29 34 38 41 41 36 40 38 35 34 36 36 37 35 33 32 29 25 24 25 26 26 28 29 21 21 22 25 26 28 28 28 28 23 19 18 19 19 19 21 16 24 22
34 33 33 36 38 31 31 37 38 37 35 32 30 30 30 33 39 45 36 28 26 28 29 29 25 24 27 30 35 37 36 37 37 35 32 30 26 23 20 21 22 21 21
27 29 29 31 31 35 32 41 53 53 53 50 45 45 47 51 45 45 49 45 28 27 31 31 33 36 35 34 34 32 30 28 26 23 21 22 20 18 17 21 24 28 21
27 22 26 31 33 32 35 46 43 43 47 52 57 57 52 48 47 45 48 52 51 43 41 39 34 32 30 26 25 21 21 23 21 19 20 25 24 21 22 23 23 21 20
24 28 35 40 43 45 46 40 40 44 42 38 40 40 39 38 38 38 37 40 43 41 39 36 32 29 25 23 22 20 20 22 20 17 19 24 25 22 24 29 24 21 18
35 44 52 50 46 46 42 37 41 50 44 42 38 36 35 37 33 33 34 31 27 25 27 23 19 22 18 18 20 21 22 24 22 17 16 14 21 29 24 36 28 25 25
49 47 44 46 42 35 35 35 39 42 46 39 41 33 33 36 39 29 29 26 24 23 25 25 27 26 25 23 26 28 30 28 33 27 20 17 20 27 32 36 33 27 24
41 40 39 38 41 35 33 32 38 34 38 42 39 31 25 24 27 29 26 24 19 13 17 19 25 27 31 25 27 32 34 33 29 30 30 26 21 27 31 34 35 31 30
28 27 28 30 28 33 30 22 23 27 30 32 31 28 26 22 20 20 21 21 14 11 17 20 24 26 27 27 27 31 33 34 34 32 28 26 25 25 29 31 32 33 32
21 23 25 23 19 24 30 21 18 21 23 30 34 29 27 25 20 19 19 16 20 20 19 21 23 24 24 24 25 28 30 32 31 31 29 29 30 27 28 30 30 31 31
14 19 18 13 18 23 28 24 22 24 27 29 27 32 32 26 22 20 20 24 26 24 24 22 21 22 22 21 22 25 30 35 36 29 26 28 29 29 29 29 29 30 32
17 13 12 17 21 23 22 22 20 22 23 25 30 35 36 31 29 30 30 28 26 25 22 20 19 18 19 19 20 25 31 37 35 32 31 30 31 30 29 29 30 31 32
9 10 17 20 19 24 20 20 21 23 23 26 29 33 36 32 31 30 30 30 28 27 26 25 22 18 18 20 20 24 30 34 32 31 30 30 31 29 28 28 29 29 29
8 15 18 22 20 20 18 19 21 22 22 20 26 27 28 28 30 29 29 29 30 30 29 27 25 22 19 19 21 23 26 31 32 33 33 30 30 28 27 28 29 29 31
18 14 20 18 19 19 20 20 19 19 19 21 19 18 21 23 25 27 28 28 29 29 29 28 28 25 23 22 22 24 25 30 32 37 34 29 28 28 28 28 29 30 31
17 13 19 20 18 17 18 18 18 19 20 18 18 17 16 19 22 24 27 25 26 26 27 27 28 28 26 25 24 25 26 29 33 36 32 27 27 27 27 28 28 30 30
11 14 16 16 18 18 17 17 18 20 21 20 18 16 16 17 20 22 23 22 23 23 24 25 26 27 27 27 27 28 28 29 32 34 29 27 26 27 28 29 29 29 31
7 10 15 15 17 15 14 15 18 19 20 20 20 17 15 15 18 20 20 19 20 21 22 24 25 26 26 27 28 27 27 29 31 33 31 27 27 30 27 29 31 29 31
Wind_Direction_850mb
337 337 334 327 325 323 319 318 324 334 338 327 331 321 329 352 3 20 45 53 56 114 186 347 305 295 290 297 299 305 309 305 296 306 330 323 331 334 335 328 342 113 71
344 343 338 338 338 329 328 324 314 314 335 340 3 9 352 356 356 358 2 17 34 30 14 350 324 310 300 298 308 306 303 297 304 312 323 337 337 345 342 359 108 81 58
345 342 349 351 348 343 338 340 358 19 334 2 351 354 350 343 322 311 310 307 310 313 318 326 322 322 318 313 311 302 295 301 309 312 319 331 342 357 36 109 85 60 26
348 1 10 16 15 15 17 10 359 341 33 42 349 340 338 331 323 308 285 276 276 279 290 300 307 303 304 306 308 291 283 312 325 331 340 341 340 356 106 126 56 30 4
6 22 13 10 8 12 24 25 24 28 29 12 347 341 343 359 6 10 4 333 294 267 278 282 291 304 310 312 307 309 329 352 16 354 352 356 16 47 104 107 52 350 350
39 17 17 7 19 25 17 41 41 48 52 45 48 60 47 41 44 55 57 60 67 84 84 317 316 319 321 348 339 18 33 11 4 6 14 25 46 76 93 72 16 4 11
30 15 19 20 31 31 39 42 46 43 39 52 60 57 56 49 44 32 26 19 14 6 26 62 75 32 39 72 65 44 37 37 25 38 47 78 72 70 59 38 20 5 356
25 14 26 31 35 40 43 46 41 43 52 59 59 52 37 19 24 50 58 57 70 74 81 90 86 95 75 59 50 45 49 42 48 67 76 73 56 49 42 29 25 14 2
22 34 41 46 47 48 47 50 47 53 57 60 63 60 57 52 57 61 64 72 75 73 86 102 93 80 64 61 69 71 69 66 68 71 67 59 54 50 37 28 6 14 12
32 35 37 39 41 40 44 43 49 53 59 58 56 54 51 55 66 67 59 64 77 83 86 85 80 74 72 78 81 79 74 71 68 65 61 60 53 50 42 26 10 8 349
16 22 39 46 44 44 51 65 71 66 65 67 65 66 65 78 75 65 55 57 85 96 88 81 76 83 83 81 74 72 68 63 57 52 41 35 19 20 13 351 348 346 339
17 32 52 47 52 59 75 86 76 69 67 68 69 69 66 71 66 59 56 62 74 84 85 84 80 79 78 71 63 57 48 45 47 39 21 21 26 33 23 16 4 358 358
53 68 71 70 75 80 86 72 64 56 57 58 61 63 69 72 68 60 65 65 71 75 76 74 68 60 53 56 50 50 45 35 34 27 19 23 17 8 357 356 0 352 344
81 87 90 77 74 78 75 71 68 61 57 59 63 66 65 62 56 61 60 62 68 70 71 64 54 56 55 41 31 28 22 13 360 352 0 1 360 13 3 2 346 334 347
86 93 77 78 74 77 69 63 56 56 46 64 61 68 62 47 53 64 60 51 58 61 50 59 62 54 45 39 40 32 20 22 24 31 21 22 8 10 9 9 8 7 354
86 84 80 83 73 69 71 57 60 53 43 39 44 48 47 42 37 35 44 38 31 41 41 58 45 46 33 33 34 32 30 27 22 23 25 21 17 10 12 11 12 10 7
93 74 74 74 79 62 63 61 53 45 37 30 31 29 26 25 19 12 3 356 360 2 31 43 44 35 33 37 36 33 28 23 24 22 21 14 5 359 2 2 5 9 8
80 68 86 75 55 38 31 35 50 44 35 32 35 34 32 29 27 30 34 49 54 51 52 43 37 33 32 31 31 29 27 22 17 15 14 16 15 8 2 1 359 359 359
90 85 80 57 23 17 20 37 39 39 42 46 42 36 31 26 27 31 39 46 46 44 44 42 38 35 33 33 32 29 23 17 13 14 17 16 12 9 4 3 2 360 1
91 74 38 26 9 1 19 38 41 43 43 40 33 32 28 31 41 43 44 45 45 43 39 36 33 31 29 27 26 24 24 19 26 32 27 16 10 5 6 7 3 2 1
67 21 350 345 15 36 40 40 40 36 33 27 24 24 24 32 39 41 43 44 44 43 42 41 38 36 35 34 33 27 24 23 26 25 18 13 10 10 9 6 4 7 5
347 356 21 36 36 34 29 29 32 28 25 22 17 16 18 27 34 35 36 38 41 42 41 40 40 39 39 34 28 25 24 25 26 22 16 10 10 10 11 10 10 10 7
30 56 31 31 30 29 26 26 22 19 19 17 16 12 16 23 27 28 31 39 45 45 43 42 41 39 38 34 31 30 29 25 21 17 14 9 8 14 12 13 13 13 13
31 33 32 30 22 22 23 21 17 14 12 11 10 13 17 22 23 25 29 38 42 43 42 41 40 39 39 36 34 32 27 20 16 15 16 13 12 14 15 16 14 12 10
38 16 12 24 31 28 25 22 15 9 7 8 9 15 20 26 25 23 26 35 39 41 41 39 37 36 35 32 29 26 21 13 14 15 18 17 16 17 18 16 16 11 12
298 344 6 9 0 356 358 3 5 4 5 9 12 15 22 28 25 21 24 33 35 37 37 35 33 31 30 29 28 23 20 16 14 15 24 19 21 20 21 16 17 17 15